• In Netherlands
  • List of Countries
  • For 7 days
  • Water Temperature
  • Satellite Maps
  • Weather Map
  • Weather Widgets
  • user-avatar
    Login

    Hourly Weather Elbasan

    Today, 20 January, Friday

    Time Temperature Precipitation Wind Pressure Humidity
    00:00 0°C° 0 mm 3 mps 743 mmHg 89%
    01:00 0°C° 0 mm 3 mps 743 mmHg 89%
    02:00 0°C° 0 mm 3 mps 744 mmHg 89%
    03:00 -1°C° 0 mm 3 mps 744 mmHg 89%
    04:00 -1°C° 0 mm 3 mps 744 mmHg 89%
    05:00 -1°C° 0 mm 3 mps 744 mmHg 88%
    06:00 -1°C° 0 mm 3 mps 744 mmHg 88%
    07:00 -1°C° 0 mm 3 mps 744 mmHg 88%
    08:00 +1°C° 0 mm 3 mps 745 mmHg 86%
    09:00 +3°C° 0 mm 2 mps 745 mmHg 83%
    10:00 +5°C° 0 mm 2 mps 745 mmHg 81%
    11:00 +6°C° 0 mm 2 mps 745 mmHg 79%
    12:00 +6°C° 0 mm 2 mps 745 mmHg 78%
    13:00 +7°C° 0 mm 2 mps 745 mmHg 77%
    14:00 +6°C° 0 mm 2 mps 745 mmHg 79%
    15:00 +6°C° 0 mm 2 mps 745 mmHg 82%
    16:00 +5°C° 0 mm 2 mps 745 mmHg 84%
    17:00 +4°C° 0 mm 2 mps 745 mmHg 85%
    18:00 +2°C° 0 mm 2 mps 745 mmHg 87%
    19:00 +1°C° 0 mm 2 mps 745 mmHg 88%
    20:00 +1°C° 0 mm 2 mps 745 mmHg 88%
    21:00 +1°C° 0 mm 2 mps 745 mmHg 88%
    22:00 -1°C° 0 mm 2 mps 745 mmHg 88%
    23:00 -1°C° 0 mm 2 mps 745 mmHg 88%

    Tomorrow, 21 January, Saturday

    Time Temperature Precipitation Wind Pressure Humidity
    00:00 -1°C° 0 mm 2 mps 745 mmHg 88%
    01:00 -1°C° 0 mm 2 mps 745 mmHg 88%
    02:00 -2°C° 0 mm 2 mps 745 mmHg 87%
    03:00 -2°C° 0 mm 2 mps 745 mmHg 87%
    04:00 -2°C° 0 mm 2 mps 744 mmHg 87%
    05:00 -2°C° 0 mm 2 mps 744 mmHg 86%
    06:00 -2°C° 0 mm 2 mps 744 mmHg 86%
    07:00 -2°C° 0 mm 2 mps 744 mmHg 85%
    08:00 +1°C° 0 mm 2 mps 744 mmHg 82%
    09:00 +3°C° 0 mm 2 mps 745 mmHg 79%
    10:00 +6°C° 0 mm 2 mps 745 mmHg 75%
    11:00 +7°C° 0 mm 1 mps 744 mmHg 74%
    12:00 +8°C° 0 mm 1 mps 744 mmHg 73%
    13:00 +9°C° 0 mm 1 mps 744 mmHg 71%
    14:00 +8°C° 0 mm 1 mps 744 mmHg 75%
    15:00 +7°C° 0 mm 1 mps 743 mmHg 79%
    16:00 +6°C° 0 mm 1 mps 743 mmHg 83%
    17:00 +4°C° 0 mm 2 mps 743 mmHg 85%
    18:00 +3°C° 0 mm 2 mps 743 mmHg 87%
    19:00 +1°C° 0 mm 2 mps 743 mmHg 89%
    20:00 +1°C° 0 mm 2 mps 744 mmHg 88%
    21:00 +1°C° 0 mm 2 mps 744 mmHg 87%
    22:00 -1°C° 0 mm 2 mps 744 mmHg 86%
    23:00 -1°C° 0 mm 2 mps 744 mmHg 85%

    Day after tomorrow, 22 January, Sunday

    Time Temperature Precipitation Wind Pressure Humidity
    00:00 -1°C° 0 mm 2 mps 744 mmHg 85%
    01:00 -1°C° 0 mm 2 mps 744 mmHg 84%
    02:00 -1°C° 0 mm 2 mps 744 mmHg 83%
    03:00 -2°C° 0 mm 2 mps 744 mmHg 83%
    04:00 -2°C° 0 mm 2 mps 744 mmHg 82%
    05:00 -2°C° 0 mm 2 mps 744 mmHg 82%
    06:00 -2°C° 0 mm 2 mps 744 mmHg 81%
    07:00 -2°C° 0 mm 2 mps 744 mmHg 81%
    08:00 +1°C° 0 mm 2 mps 744 mmHg 78%
    09:00 +3°C° 0 mm 2 mps 745 mmHg 75%
    10:00 +5°C° 0 mm 2 mps 745 mmHg 72%
    11:00 +6°C° 0 mm 2 mps 745 mmHg 71%
    12:00 +7°C° 0 mm 2 mps 744 mmHg 70%
    13:00 +8°C° 0 mm 2 mps 744 mmHg 69%
    14:00 +7°C° 0 mm 2 mps 744 mmHg 73%
    15:00 +6°C° 0 mm 2 mps 744 mmHg 77%
    16:00 +5°C° 0 mm 2 mps 743 mmHg 81%
    17:00 +4°C° 0 mm 2 mps 744 mmHg 82%
    18:00 +3°C° 0 mm 2 mps 744 mmHg 84%
    19:00 0°C° 0 mm 3 mps 744 mmHg 85%
    20:00 0°C° 0 mm 3 mps 744 mmHg 85%
    21:00 0°C° 0 mm 3 mps 744 mmHg 84%
    22:00 0°C° 0 mm 3 mps 744 mmHg 84%
    23:00 0°C° 0 mm 3 mps 744 mmHg 83%

    23 January, Monday

    Time Temperature Precipitation Wind Pressure Humidity
    00:00 0°C° 0 mm 3 mps 744 mmHg 83%
    01:00 -1°C° 0 mm 3 mps 743 mmHg 82%
    02:00 0°C° 0 mm 3 mps 743 mmHg 82%
    03:00 0°C° 0 mm 3 mps 742 mmHg 82%
    04:00 0°C° 0 mm 3 mps 742 mmHg 82%
    05:00 0°C° 0 mm 3 mps 742 mmHg 82%
    06:00 0°C° 0 mm 3 mps 742 mmHg 83%
    07:00 0°C° 0 mm 3 mps 742 mmHg 83%
    08:00 +1°C° 0 mm 3 mps 742 mmHg 81%
    09:00 +3°C° 0 mm 3 mps 742 mmHg 78%
    10:00 +4°C° 0 mm 3 mps 742 mmHg 75%
    11:00 +5°C° 0.1 mm 3 mps 741 mmHg 76%
    12:00 +5°C° 0.1 mm 3 mps 741 mmHg 76%
    13:00 +7°C° 0.1 mm 2 mps 740 mmHg 77%
    14:00 +7°C° 0.1 mm 2 mps 740 mmHg 79%
    15:00 +6°C° 0.1 mm 2 mps 739 mmHg 82%
    16:00 +5°C° 0.1 mm 2 mps 739 mmHg 84%
    17:00 +5°C° 0.3 mm 2 mps 739 mmHg 86%
    18:00 +4°C° 0.3 mm 2 mps 739 mmHg 87%
    19:00 +4°C° 0.3 mm 2 mps 738 mmHg 89%
    20:00 +4°C° 0.9 mm 2 mps 738 mmHg 90%
    21:00 +4°C° 0.9 mm 2 mps 738 mmHg 90%
    22:00 +4°C° 0.9 mm 2 mps 738 mmHg 91%
    23:00 +4°C° 0.7 mm 2 mps 737 mmHg 91%

    24 January, Tuesday

    Time Temperature Precipitation Wind Pressure Humidity
    00:00 +4°C° 0.7 mm 2 mps 737 mmHg 92%
    01:00 +4°C° 0.7 mm 2 mps 737 mmHg 92%
    02:00 +4°C° 0.9 mm 2 mps 736 mmHg 92%
    03:00 +4°C° 0.9 mm 2 mps 736 mmHg 92%
    04:00 +4°C° 0.9 mm 2 mps 735 mmHg 93%
    05:00 +4°C° 0.8 mm 2 mps 735 mmHg 92%
    06:00 +4°C° 0.8 mm 2 mps 734 mmHg 92%
    07:00 +3°C° 0.8 mm 3 mps 734 mmHg 92%
    08:00 +5°C° 0.5 mm 2 mps 734 mmHg 91%
    09:00 +5°C° 0.5 mm 2 mps 733 mmHg 90%
    10:00 +6°C° 0.5 mm 2 mps 733 mmHg 89%
    11:00 +6°C° 0.8 mm 2 mps 732 mmHg 90%
    12:00 +6°C° 0.8 mm 2 mps 732 mmHg 91%
    13:00 +6°C° 0.8 mm 2 mps 732 mmHg 91%
    14:00 +6°C° 0.7 mm 2 mps 731 mmHg 92%
    15:00 +7°C° 0.7 mm 1 mps 731 mmHg 92%
    16:00 +6°C° 0.7 mm 1 mps 731 mmHg 92%
    17:00 +6°C° 0.3 mm 1 mps 731 mmHg 92%
    18:00 +6°C° 0.3 mm 1 mps 731 mmHg 92%
    19:00 +5°C° 0.3 mm 2 mps 731 mmHg 92%
    20:00 +5°C° 0.3 mm 2 mps 732 mmHg 92%
    21:00 +4°C° 0.3 mm 2 mps 732 mmHg 92%
    22:00 +4°C° 0.3 mm 2 mps 732 mmHg 92%
    23:00 +4°C° 0.2 mm 2 mps 732 mmHg 92%

    25 January, Wednesday

    Time Temperature Precipitation Wind Pressure Humidity
    00:00 +4°C° 0.2 mm 2 mps 732 mmHg 92%
    01:00 +4°C° 0.2 mm 2 mps 732 mmHg 92%
    02:00 +4°C° 0.2 mm 2 mps 732 mmHg 92%
    03:00 +4°C° 0.2 mm 2 mps 732 mmHg 92%
    04:00 +4°C° 0.2 mm 2 mps 732 mmHg 92%
    05:00 +4°C° 0.2 mm 2 mps 732 mmHg 92%
    06:00 +4°C° 0.2 mm 2 mps 732 mmHg 92%
    07:00 +4°C° 0.2 mm 2 mps 732 mmHg 93%
    08:00 +5°C° 0.1 mm 2 mps 733 mmHg 91%
    09:00 +6°C° 0.1 mm 2 mps 733 mmHg 90%
    10:00 +6°C° 0.1 mm 2 mps 734 mmHg 88%
    11:00 +7°C° 0.1 mm 2 mps 734 mmHg 87%
    12:00 +7°C° 0.1 mm 2 mps 734 mmHg 86%
    13:00 +8°C° 0.1 mm 2 mps 734 mmHg 84%
    14:00 +7°C° 0.1 mm 2 mps 734 mmHg 86%
    15:00 +7°C° 0.1 mm 2 mps 734 mmHg 87%
    16:00 +6°C° 0.1 mm 2 mps 734 mmHg 89%
    17:00 +5°C° 0 mm 2 mps 735 mmHg 89%
    18:00 +4°C° 0 mm 2 mps 735 mmHg 90%
    19:00 +3°C° 0 mm 2 mps 735 mmHg 90%
    20:00 +2°C° 0 mm 2 mps 736 mmHg 90%
    21:00 +2°C° 0 mm 2 mps 736 mmHg 89%
    22:00 +1°C° 0 mm 3 mps 737 mmHg 89%
    23:00 +1°C° 0 mm 2 mps 737 mmHg 89%
    Show more